Tracking 33723 objects as of 10-Apr-2026
HD Live streaming from Space Station
objects crossing your sky now

COSMOS 1275 DEB

Track COSMOS 1275 DEB now!
10-day predictions


NORAD ID: 42210
Int'l Code: 1981-053UA
Perigee: 922.8 km
Apogee: 1,079.1 km
Inclination: 83.0 °
Period: 105.0 minutes
Semi major axis: 7371 km
RCS: Unknown
Launch date: June 4, 1981
Source: Commonwealth of Independent States (former USSR) (CIS)
Launch site: PLESETSK MISSILE AND SPACE COMPLEX (PKMTR)

Note: This is SATELLITE DEBRIS
Your satellite tracking list
Your tracking list is empty




NASA's NSSDC Master Catalog

Two Line Element Set (TLE):
1 42210U 81053UA  26098.86619949  .00000806  00000-0  84362-3 0  9993
2 42210  83.0072 321.4891 0105964 197.2360 179.1293 13.71602006617925
Source of the keplerian elements: AFSPC